This is the latest recevied weather packets stored in our database for station/object G4KVI. If no packets are shown the sender has not sent any weather packets the latest 10 day(s).
| Time | Temp. | Humidity | Pressure | Rain* | Wind** | Luminosity | Snow |
|---|---|---|---|---|---|---|---|
| 1788079204 | 18.33° C | 83% | 1011.5 hPa | 0 mm | - | 176 W/m² | - |
| 1788078904 | 18.33° C | 82% | 1011.4 hPa | 0 mm | - | 88 W/m² | - |
| 1788078604 | 18.33° C | 82% | 1011.7 hPa | 0 mm | - | 303 W/m² | - |
| 1788078304 | 18.33° C | 82% | 1011.6 hPa | 0 mm | - | 303 W/m² | - |
| 1788078004 | 18.89° C | 78% | 1011.6 hPa | 0 mm | - | 199 W/m² | - |
| 1788077703 | 19.44° C | 79% | 1011.7 hPa | 0 mm | - | 337 W/m² | - |
| 1788077403 | 18.33° C | 82% | 1011.5 hPa | 0 mm | - | 263 W/m² | - |
| 1788077103 | 18.33° C | 82% | 1011.6 hPa | 0 mm | - | 229 W/m² | - |
| 1788076804 | 17.78° C | 86% | 1011.4 hPa | 0 mm | - | 167 W/m² | - |
| 1788076503 | 16.67° C | 88% | 1011.4 hPa | 0 mm | - | 146 W/m² | - |
| 1788076203 | 16.11° C | 89% | 1011.6 hPa | 0 mm | - | 148 W/m² | - |
| 1788075904 | 16.11° C | 89% | 1011.3 hPa | 0 mm | - | 91 W/m² | - |
| 1788075604 | 16.11° C | 90% | 1011.5 hPa | 0 mm | - | 111 W/m² | - |
| 1788075303 | 16.11° C | 90% | 1011.4 hPa | 0 mm | - | 115 W/m² | - |
| 1788075004 | 16.11° C | 90% | 1011.4 hPa | 0 mm | - | 94 W/m² | - |
| 1788074703 | 15.56° C | 90% | 1011.5 hPa | 0 mm | - | 96 W/m² | - |
| 1788074404 | 15.56° C | 90% | 1011.4 hPa | 0 mm | - | 83 W/m² | - |
| 1788074103 | 15.56° C | 90% | 1011.6 hPa | 0 mm | - | 80 W/m² | - |
| 1788073803 | 16.11° C | 90% | 1011.6 hPa | 0 mm | - | 66 W/m² | - |
| 1788073503 | 16.11° C | 90% | 1011.7 hPa | 0 mm | - | 64 W/m² | - |
| 1788073204 | 16.11° C | 90% | 1011.3 hPa | 0 mm | - | 70 W/m² | - |
| 1788072903 | 16.11° C | 91% | 1011.7 hPa | 0 mm | - | 82 W/m² | - |
| 1788072603 | 16.11° C | 92% | 1011.6 hPa | 0 mm | - | 74 W/m² | - |
| 1788072303 | 15.56° C | 93% | 1011.5 hPa | 0 mm | - | 79 W/m² | - |
| 1788072004 | 15.56° C | 94% | 1011.2 hPa | 0 mm | - | 69 W/m² | - |
* Rain latest hour (hover to see other rain measurements)
** Current wind speed in m/s (hover to see current wind gust speed)